Terminal Aerodrome Forecast
Issued by NWS Boston, MA

Home | Current Version | Previous Version | Text Only | Print | Product List | Glossary On
Versions: 1 2 3 4 5 6 7 8 9 10 11 12 13 14 15 16 17 18 19 20 21 22 23 24 25 26 27 28 29 30 31 32 33 34 35 36 37 38 39 40 41 42 43 44 45 46
000
FTUS41 KBOX 191121
TAFBOS
TAF
KBOS 191121Z 1912/2018 25008KT P6SM FEW120
     FM191500 30012G22KT P6SM FEW050 FEW250
     FM192300 34010G20KT P6SM SKC
     FM200300 36008KT P6SM SKC
     FM201300 04008KT P6SM FEW250=

USA.gov is the U.S. government's official web portal to all federal, state and local government web resources and services.